Location: Deer Path Park
(40.5570°N, 74.8450°W)
Time: 11:40:57
(UTC-04:00)

Iridium 49 - Visible Passes

Search period start: 06 July 2015 00:00
Search period end: 16 July 2015 00:00
Orbit: 776 x 779 km, 86.4° (Epoch: 06 July)

Date Brightness Start Highest point End Pass type
(mag) Time Alt. Az. Time Alt. Az. Time Alt. Az.
08 Jul 9.2 04:56:45 10° NE 04:58:44 12° ENE 05:01:01 10° E visible
11 Jul 8.9 04:55:41 10° NNE 04:59:07 18° ENE 05:02:44 10° ESE visible
14 Jul 8.5 04:55:11 10° NNE 04:59:26 26° ENE 05:03:48 10° SE visible
15 Jul 8.9 04:22:54 10° NE 04:25:31 14° ENE 04:28:23 10° ESE visible
